Regional Weather Roundup
Issued by NWS

Home | Current Version | Previous Version | Text Only | Print | Product List | Glossary Off
Versions: 1 2 3 4 5 6 7 8 9 10 11 12 13 14 15 16 17 18 19 20 21 22 23 24 25 26 27 28 29 30 31 32 33 34 35 36 37 38 39 40 41 42 43 44 45 46 47 48 49 50

000
ASUS43 KMPX 241601
RWRMN
WEATHER ROUNDUP FOR MINNESOTA
NATIONAL WEATHER SERVICE TWIN CITIES/CHANHASSEN MN
1100 AM CDT SUN SEP 24 2017


NOTE: "FAIR" INDICATES FEW OR NO CLOUDS BELOW 12,000 FEET WITH NO
SIGNIFICANT WEATHER AND/OR OBSTRUCTIONS TO VISIBILITY. N/A MEANS
CURRENT SKY AND/OR WEATHER CONDITIONS ARE NOT AVAILABLE.

MNZ060>063-068>070-241700-
   Twin Cities Metro

CITY           SKY/WX    TMP DP  RH WIND       PRES   REMARKS
TWIN CITIES    PTSUNNY   82  67  60 S16       29.94F
ST PAUL        SUNNY     79  68  69 SE7       29.94F
CRYSTAL        SUNNY     81  65  58 S13       29.92F
BLAINE         PTSUNNY   81  66  61 S9        29.94S
LAKEVILLE      SUNNY     81  66  61 S7        29.95F
EDEN PRAIRIE   SUNNY     82  67  60 S13       29.92F
SOUTH ST PAUL  MOSUNNY   80  66  61 S7        29.95S
LAKE ELMO      FAIR      79  68  69 S8        29.97S
$$
MNZ001>005-007-008-013>017-022>024-027-028-241700-
   Northwest Minnesota

CITY           SKY/WX    TMP DP  RH WIND       PRES   REMARKS
BEMIDJI        CLOUDY    65  64  94 S9        29.85R
HALLOCK        DRIZZLE   54  52  94 N12       29.88S
ROSEAU         DRIZZLE   55  50  82 N7        29.85S
CROOKSTON      DRIZZLE   54  54 100 N7        29.85F
FOSSTON        CLOUDY    63  63 100 SW10      29.83F
DETROIT LAKES  CLOUDY    64  63  94 S7        29.84F
MOORHEAD       DRIZZLE   57  55  94 N5        29.84S
PARK RAPIDS    PTSUNNY   70  66  87 S13       29.85F
MAHNOMEN       CLOUDY    64  63  95 S9        29.83S
$$
MNZ006-009>011-018-025>026-241700-
   North Central Minnesota

CITY           SKY/WX    TMP DP  RH WIND       PRES   REMARKS
BAUDETTE       CLOUDY    61  60  97 SE7       29.84S
FLAG ISLAND    DRIZZLE   55  54  94 N12       29.82F
INTL FALLS     CLOUDY    66  63  90 VRB6      29.85S
WASKISH        CLOUDY    63  63 100 CALM      29.84F
BIG FORK       MOSUNNY   72  66  83 S8G17     29.86F
LONGVILLE      CLOUDY    72  66  83 S7        29.87F
GRAND RAPIDS   MOSUNNY   73  67  81 S13       29.90F
CRANE LAKE     PTSUNNY   72  66  83 S3        29.88S
ORR            CLOUDY    72  64  78 S9        29.86S
COOK           CLOUDY    73  66  78 S9G24     29.89S
WALKER         PTSUNNY   67  64  91 S5        29.85F
$$
MNZ012-019>021-037-241700-
   Northeast Minnesota

CITY           SKY/WX    TMP DP  RH WIND       PRES   REMARKS
DULUTH         CLOUDY    72  66  81 S9        29.94F
ELY            CLOUDY    73  64  73 S9        29.91F
HIBBING        MOSUNNY   73  67  81 S8        29.90S
EVELETH        MOSUNNY   73  65  74 S9        29.92F
DULUTH HARBOR  FOG       63  61  94 NE5       29.94S VSB 3/4
GRAND MARAIS     N/A     64  63  96 NE7       29.96R
$$
MNZ029>031-032-039>041-046>048-054>057-064-241700-
   West Central Minnesota

CITY           SKY/WX    TMP DP  RH WIND       PRES   REMARKS
FERGUS FALLS   CLOUDY    66  66 100 S10       29.83S
WHEATON        MOSUNNY   68  63  83 S5        29.83F
ALEXANDRIA     MOSUNNY   73  66  78 S15       29.88S
ELBOW LAKE     PTSUNNY   68  66  91 S12       29.84F FOG
WADENA         MOSUNNY   70  66  88 S16       29.85S
GLENWOOD       MOSUNNY   73  66  78 S20G25    29.88S
APPLETON       MOSUNNY   73  64  73 S9G16     29.83S
BENSON         MOSUNNY   75  64  69 SW12      29.86F
ORTONVILLE     PTSUNNY   66  64  94 N5        29.83S
MADISON        PTSUNNY   79  70  73 S9        29.83S
WILLMAR        FAIR      77  68  73 S5        29.89S
$$
MNZ033>034-036-042>043-049>051-058-059-241700-
   Central Minnesota

CITY           SKY/WX    TMP DP  RH WIND       PRES   REMARKS
ST CLOUD       CLOUDY    77  69  76 S13       29.90F
SAUK CENTRE    FAIR      75  67  76 S13G18    29.88F
PAYNESVILLE    MOSUNNY   77  68  72 S8        29.90S
AITKIN         MOSUNNY   73  66  78 S10       29.88S
PINE RIVER     MOSUNNY   70  63  78 S7        29.90F
BRAINERD       CLOUDY    76  66  71 S10       29.88S
STAPLES        MOSUNNY   68  68 100 S14       29.86F
LITTLE FALLS   MOSUNNY   75  61  60 S9        29.89S
LITCHFIELD     SUNNY     81  70  69 S5        29.90F
BUFFALO        CLOUDY    80  66  62 S7        29.93F
MAPLE LAKE     CLOUDY    79  69  70 S9        29.93S
HUTCHINSON     CLOUDY    79  69  70 SE10G17   29.92F
$$
MNZ037-044-045-052-053-241700-
   East Central Minnesota

CITY           SKY/WX    TMP DP  RH WIND       PRES   REMARKS
PRINCETON      CLOUDY    81  68  65 S10       29.92S
MORA           MOSUNNY   77  64  65 S10       29.93F
RUSH CITY      MOSUNNY   79  66  65 S9        29.94S
MOOSE LAKE     MOSUNNY   77  64  65 S10       29.91S
HINCKLEY       FAIR      79  68  69 S12G17    29.93S
CLOQUET        CLOUDY    75  64  69 SE7       29.94S
MCGREGOR       MOSUNNY   75  66  73 S12       29.91S
$$
MNZ071>073-080-081-089-090-097-098-241700-
   Southwest Minnesota

CITY           SKY/WX    TMP DP  RH WIND       PRES   REMARKS
MONTEVIDEO     MOSUNNY   75  68  78 SW12G21   29.85F
GRANITE FALLS  MOSUNNY   79  68  69 S14G21    29.88S
CANBY          PTSUNNY   78  67  69 S10       29.85S
MARSHALL       SUNNY     79  67  66 S18G25    29.86F
REDWOOD FALLS  PTSUNNY   80  66  62 S15       29.88F
OLIVIA         PTSUNNY   77  64  65 S13G18    29.88S
PIPESTONE      MOSUNNY   77  66  69 S13       29.88S
WORTHINGTON    MOSUNNY   80  66  62 S15       29.92F
JACKSON        CLOUDY    81  63  54 S16G24    29.94S
TRACY          MOSUNNY   77  68  73 S13       29.89S
SLAYTON        MOSUNNY   76  59  54 S14G21    29.91S HAZE
$$
MNZ065>067-074>077-082>085-091>093-241700-
   South Central Minnesota

CITY           SKY/WX    TMP DP  RH WIND       PRES   REMARKS
MANKATO        SUNNY     82  67  60 S10G17    29.94F
NEW ULM        MOSUNNY   81  64  57 S14G23    29.91F
ST JAMES       SUNNY     82  64  54 S18       29.93F
FAIRMONT       SUNNY     82  66  58 S17G23    29.94F
FARIBAULT      SUNNY     82  66  57 S10       29.96F
OWATONNA       SUNNY     82  66  57 S12       29.97S
WASECA         SUNNY     82  64  54 S12G17    29.97F
ALBERT LEA     SUNNY     84  66  54 S7        29.98S
$$
MNZ078>079-086>088-094>096-241700-
   Southeast Minnesota

CITY           SKY/WX    TMP DP  RH WIND       PRES   REMARKS
ROCHESTER      SUNNY     82  64  54 S12       30.01S
RED WING       SUNNY     82  63  51 SE6       29.95F
STANTON        SUNNY     83  65  54 S9G17     29.95S
DODGE CENTER   SUNNY     82  61  47 S14       29.99F
WINONA         SUNNY     82  61  47 S8        29.99F
AUSTIN         SUNNY     81  63  54 S8        29.99F
PRESTON        SUNNY     80  62  55 S9        30.02F
$$
ABBREVIATIONS USED IN REMARKS
   TC - TEMPERATURES IN CELSIUS
  WCI - WIND CHILL INDEX
   HX - HEAT INDEX
  VSB - VISIBILITY
$$




USA.gov is the U.S. government's official web portal to all federal, state and local government web resources and services.